Location: *
(34.0486°S, 61.7880°E)
Time: 16:34:24
(UTC+00:00)

Meteor 2-5 Rocket - Pass Details

Date: 01 April 2020
Orbit: 833 x 912 km, 81.2° (Epoch: 26 May)

Event Time Altitude Azimuth Distance (km) Brightness Sun altitude
Rises 15:52:54 0° 343° (NNW) 3,366 6.9 -26.7°
Reaches altitude 10° 15:55:19 10° 339° (NNW) 2,443 6.2 -27.2°
Maximum altitude 16:00:46 59° 260° (W) 973 4.2 -28.3°
Drops below altitude 10° 16:06:21 10° 180° (S) 2,504 6.3 -29.4°
Sets 16:08:52 0° 176° (S) 3,458 7.0 -29.9°
